contact:dominique.lefevre@mio.osupytheas.fr, maurice.libes@osupytheas.fr, didier.mallarino@osupytheas.fr
Project:EMSO http://www.emso-fr.org/EMSO-France
Depth: 2436.0 m
Title:EMSO Ligure Ouest : Data MII capteur MICROCAT
DateTime_Computer,Latitude,Longitude,Temperature,Conductivity,Pressure,DateTime_Instrument
DateTime_Computer,Latitude,Longitude,degC,S m-1,dbar,DateTime_Instrument
2020-12-27T00:01:14Z,42.805,6.029,13.3010,4.60019,2469.97,2020-12-27T02:02:14Z
2020-12-27T00:04:17Z,42.805,6.029,13.3007,4.60009,2469.993,2020-12-27T02:05:17Z
2020-12-27T00:07:20Z,42.805,6.029,13.3015,4.60019,2469.993,2020-12-27T02:08:20Z
2020-12-27T00:10:23Z,42.805,6.029,13.3009,4.60018,2470.007,2020-12-27T02:11:23Z
2020-12-27T00:13:26Z,42.805,6.029,13.3014,4.60010,2470.03,2020-12-27T02:14:26Z
2020-12-27T00:16:29Z,42.805,6.029,13.3017,4.60031,2469.993,2020-12-27T02:17:29Z
2020-12-27T00:19:32Z,42.805,6.029,13.3011,4.60006,2469.993,2020-12-27T02:20:32Z
2020-12-27T00:22:36Z,42.805,6.029,13.3014,4.60014,2469.984,2020-12-27T02:23:35Z
2020-12-27T00:25:39Z,42.805,6.029,13.2994,4.60026,2470.007,2020-12-27T02:26:39Z
2020-12-27T00:28:42Z,42.805,6.029,13.3026,4.60023,2469.97,2020-12-27T02:29:42Z
2020-12-27T00:31:45Z,42.805,6.029,13.3001,4.60020,2469.993,2020-12-27T02:32:45Z
2020-12-27T00:34:48Z,42.805,6.029,13.3014,4.60018,2470.03,2020-12-27T02:35:48Z
2020-12-27T00:37:51Z,42.805,6.029,13.3002,4.60003,2469.993,2020-12-27T02:38:51Z
2020-12-27T00:40:54Z,42.805,6.029,13.3013,4.60021,2469.97,2020-12-27T02:41:54Z
2020-12-27T00:43:57Z,42.805,6.029,13.3004,4.60011,2469.993,2020-12-27T02:44:57Z
2020-12-27T00:47:01Z,42.805,6.029,13.3006,4.60011,2470.007,2020-12-27T02:48:00Z
2020-12-27T00:50:04Z,42.805,6.029,13.3008,4.60021,2469.984,2020-12-27T02:51:04Z
2020-12-27T00:53:07Z,42.805,6.029,13.3015,4.60008,2470.007,2020-12-27T02:54:07Z
2020-12-27T00:56:10Z,42.805,6.029,13.3026,4.60012,2469.993,2020-12-27T02:57:10Z
2020-12-27T00:59:13Z,42.805,6.029,13.3012,4.60004,2469.993,2020-12-27T03:00:13Z
2020-12-27T01:02:16Z,42.805,6.029,13.3023,4.60006,2469.993,2020-12-27T03:03:16Z
2020-12-27T01:05:19Z,42.805,6.029,13.3022,4.60011,2470.017,2020-12-27T03:06:19Z
2020-12-27T01:08:22Z,42.805,6.029,13.3000,4.60016,2470.03,2020-12-27T03:09:22Z
2020-12-27T01:11:26Z,42.805,6.029,13.3014,4.60008,2470.03,2020-12-27T03:12:25Z
2020-12-27T01:14:29Z,42.805,6.029,13.3019,4.60009,2470.04,2020-12-27T03:15:29Z
2020-12-27T01:17:32Z,42.805,6.029,13.3016,4.60016,2469.993,2020-12-27T03:18:32Z
2020-12-27T01:20:35Z,42.805,6.029,13.3012,4.60005,2470.017,2020-12-27T03:21:35Z
2020-12-27T01:23:38Z,42.805,6.029,13.3014,4.60011,2470.03,2020-12-27T03:24:38Z
2020-12-27T01:26:41Z,42.805,6.029,13.3011,4.60053,2470.007,2020-12-27T03:27:41Z
2020-12-27T01:29:44Z,42.805,6.029,13.3014,4.60014,2470.03,2020-12-27T03:30:44Z
2020-12-27T01:32:47Z,42.805,6.029,13.3022,4.60015,2470.04,2020-12-27T03:33:47Z
2020-12-27T01:35:51Z,42.805,6.029,13.3002,4.60005,2470.053,2020-12-27T03:36:50Z
2020-12-27T01:38:54Z,42.805,6.029,13.3013,4.60009,2470.03,2020-12-27T03:39:54Z
2020-12-27T01:41:57Z,42.805,6.029,13.3006,4.60009,2470.04,2020-12-27T03:42:57Z
2020-12-27T01:45:00Z,42.805,6.029,13.3019,4.60002,2469.993,2020-12-27T03:46:00Z
2020-12-27T01:48:03Z,42.805,6.029,13.3007,4.60005,2470.053,2020-12-27T03:49:03Z
2020-12-27T01:51:06Z,42.805,6.029,13.3007,4.60007,2470.03,2020-12-27T03:52:06Z
2020-12-27T01:54:09Z,42.805,6.029,13.3012,4.60003,2470.077,2020-12-27T03:55:09Z
2020-12-27T01:57:12Z,42.805,6.029,13.3005,4.60008,2470.053,2020-12-27T03:58:12Z
2020-12-27T02:00:15Z,42.805,6.029,13.3010,4.60018,2470.053,2020-12-27T04:01:15Z
2020-12-27T02:03:19Z,42.805,6.029,13.3014,4.60009,2470.03,2020-12-27T04:04:18Z
2020-12-27T02:06:22Z,42.805,6.029,13.3017,4.60009,2470.04,2020-12-27T04:07:22Z
2020-12-27T02:09:25Z,42.805,6.029,13.3019,4.60007,2470.077,2020-12-27T04:10:25Z
2020-12-27T02:12:28Z,42.805,6.029,13.3008,4.60010,2470.063,2020-12-27T04:13:28Z
2020-12-27T02:15:31Z,42.805,6.029,13.3042,4.60002,2470.053,2020-12-27T04:16:31Z
2020-12-27T02:18:34Z,42.805,6.029,13.3016,4.60006,2470.077,2020-12-27T04:19:34Z
2020-12-27T02:21:37Z,42.805,6.029,13.3018,4.60015,2470.04,2020-12-27T04:22:37Z
2020-12-27T02:24:40Z,42.805,6.029,13.3015,4.60007,2470.04,2020-12-27T04:25:40Z
2020-12-27T02:27:44Z,42.805,6.029,13.3009,4.60016,2470.03,2020-12-27T04:28:43Z
2020-12-27T02:30:47Z,42.805,6.029,13.3010,4.60009,2470.077,2020-12-27T04:31:47Z
2020-12-27T02:33:50Z,42.805,6.029,13.3019,4.60019,2470.04,2020-12-27T04:34:50Z
2020-12-27T02:36:53Z,42.805,6.029,13.3007,4.60009,2470.063,2020-12-27T04:37:53Z
2020-12-27T02:39:56Z,42.805,6.029,13.3006,4.60024,2470.077,2020-12-27T04:40:56Z
2020-12-27T02:42:59Z,42.805,6.029,13.3013,4.60016,2470.11,2020-12-27T04:43:59Z
2020-12-27T02:46:02Z,42.805,6.029,13.3011,4.60017,2470.053,2020-12-27T04:47:02Z
2020-12-27T02:49:05Z,42.805,6.029,13.3016,4.60005,2470.087,2020-12-27T04:50:05Z
2020-12-27T02:52:09Z,42.805,6.029,13.3017,4.60011,2470.063,2020-12-27T04:53:08Z
2020-12-27T02:55:12Z,42.805,6.029,13.3018,4.60006,2470.063,2020-12-27T04:56:12Z
2020-12-27T02:58:15Z,42.805,6.029,13.3023,4.60005,2470.087,2020-12-27T04:59:15Z
2020-12-27T03:01:18Z,42.805,6.029,13.3020,4.60011,2470.063,2020-12-27T05:02:18Z
2020-12-27T03:04:21Z,42.805,6.029,13.3021,4.60020,2470.114,2020-12-27T05:05:21Z
2020-12-27T03:07:24Z,42.805,6.029,13.3021,4.60016,2470.087,2020-12-27T05:08:24Z
2020-12-27T03:10:27Z,42.805,6.029,13.3027,4.60024,2470.11,2020-12-27T05:11:27Z
2020-12-27T03:13:30Z,42.805,6.029,13.3022,4.60021,2470.1,2020-12-27T05:14:30Z
2020-12-27T03:16:34Z,42.805,6.029,13.3023,4.60011,2470.087,2020-12-27T05:17:33Z
2020-12-27T03:19:37Z,42.805,6.029,13.3039,4.60014,2470.063,2020-12-27T05:20:37Z
2020-12-27T03:22:40Z,42.805,6.029,13.3024,4.60006,2470.124,2020-12-27T05:23:40Z
2020-12-27T03:25:43Z,42.805,6.029,13.3022,4.60014,2470.11,2020-12-27T05:26:43Z
2020-12-27T03:28:46Z,42.805,6.029,13.3022,4.60010,2470.124,2020-12-27T05:29:46Z
2020-12-27T03:31:49Z,42.805,6.029,13.3021,4.60014,2470.1,2020-12-27T05:32:49Z
2020-12-27T03:34:52Z,42.805,6.029,13.3029,4.60014,2470.124,2020-12-27T05:35:52Z
2020-12-27T03:37:55Z,42.805,6.029,13.3024,4.60019,2470.1,2020-12-27T05:38:55Z
2020-12-27T03:40:59Z,42.805,6.029,13.3019,4.60016,2470.147,2020-12-27T05:41:58Z
2020-12-27T03:44:02Z,42.805,6.029,13.3016,4.60014,2470.077,2020-12-27T05:45:02Z
2020-12-27T03:47:05Z,42.805,6.029,13.3029,4.60022,2470.11,2020-12-27T05:48:05Z
2020-12-27T03:50:08Z,42.805,6.029,13.3017,4.60006,2470.087,2020-12-27T05:51:08Z
2020-12-27T03:53:11Z,42.805,6.029,13.3021,4.60010,2470.073,2020-12-27T05:54:11Z
2020-12-27T03:56:14Z,42.805,6.029,13.3017,4.60009,2470.124,2020-12-27T05:57:14Z
2020-12-27T03:59:17Z,42.805,6.029,13.3006,4.60019,2470.156,2020-12-27T06:00:17Z
2020-12-27T04:02:20Z,42.805,6.029,13.3021,4.60007,2470.11,2020-12-27T06:03:20Z
2020-12-27T04:05:24Z,42.805,6.029,13.3006,4.60021,2470.087,2020-12-27T06:06:23Z
2020-12-27T04:08:27Z,42.805,6.029,13.3015,4.60017,2470.124,2020-12-27T06:09:27Z
2020-12-27T04:11:30Z,42.805,6.029,13.3011,4.60019,2470.124,2020-12-27T06:12:30Z
2020-12-27T04:14:33Z,42.805,6.029,13.3028,4.60014,2470.124,2020-12-27T06:15:33Z
2020-12-27T04:17:36Z,42.805,6.029,13.3016,4.60006,2470.124,2020-12-27T06:18:36Z
2020-12-27T04:20:39Z,42.805,6.029,13.3018,4.60014,2470.11,2020-12-27T06:21:39Z
2020-12-27T04:23:42Z,42.805,6.029,13.3015,4.60009,2470.133,2020-12-27T06:24:42Z
2020-12-27T04:26:45Z,42.805,6.029,13.3012,4.60015,2470.087,2020-12-27T06:27:45Z
2020-12-27T04:29:49Z,42.805,6.029,13.3015,4.60013,2470.133,2020-12-27T06:30:48Z
2020-12-27T04:32:52Z,42.805,6.029,13.3016,4.60014,2470.11,2020-12-27T06:33:51Z
2020-12-27T04:35:55Z,42.805,6.029,13.3019,4.60014,2470.156,2020-12-27T06:36:55Z
2020-12-27T04:38:58Z,42.805,6.029,13.3021,4.60005,2470.156,2020-12-27T06:39:58Z
2020-12-27T04:42:01Z,42.805,6.029,13.3006,4.60014,2470.133,2020-12-27T06:43:01Z
2020-12-27T04:45:04Z,42.805,6.029,13.3019,4.60016,2470.171,2020-12-27T06:46:04Z
2020-12-27T04:48:07Z,42.805,6.029,13.3015,4.60016,2470.156,2020-12-27T06:49:07Z
2020-12-27T04:51:10Z,42.805,6.029,13.3021,4.60015,2470.133,2020-12-27T06:52:10Z
2020-12-27T04:54:13Z,42.805,6.029,13.3024,4.60016,2470.156,2020-12-27T06:55:13Z
2020-12-27T04:57:17Z,42.805,6.029,13.3020,4.60017,2470.171,2020-12-27T06:58:16Z
2020-12-27T05:00:20Z,42.805,6.029,13.3014,4.60002,2470.171,2020-12-27T07:01:20Z
2020-12-27T05:03:23Z,42.805,6.029,13.3009,4.60016,2470.194,2020-12-27T07:04:23Z
2020-12-27T05:06:26Z,42.805,6.029,13.3014,4.60009,2470.124,2020-12-27T07:07:26Z
2020-12-27T05:09:29Z,42.805,6.029,13.3034,4.60003,2470.156,2020-12-27T07:10:29Z
2020-12-27T05:12:32Z,42.805,6.029,13.3014,4.60016,2470.133,2020-12-27T07:13:32Z
2020-12-27T05:15:35Z,42.805,6.029,13.3022,4.60019,2470.147,2020-12-27T07:16:35Z
2020-12-27T05:18:38Z,42.805,6.029,13.2996,4.59999,2470.147,2020-12-27T07:19:38Z
2020-12-27T05:21:42Z,42.805,6.029,13.3008,4.60016,2470.147,2020-12-27T07:22:41Z
2020-12-27T05:24:45Z,42.805,6.029,13.3015,4.60019,2470.147,2020-12-27T07:25:45Z
2020-12-27T05:27:48Z,42.805,6.029,13.3029,4.60021,2470.171,2020-12-27T07:28:48Z
2020-12-27T05:30:51Z,42.805,6.029,13.3020,4.60015,2470.156,2020-12-27T07:31:51Z
2020-12-27T05:33:54Z,42.805,6.029,13.3006,4.60010,2470.156,2020-12-27T07:34:54Z
2020-12-27T05:36:57Z,42.805,6.029,13.3018,4.60011,2470.133,2020-12-27T07:37:57Z
2020-12-27T05:40:00Z,42.805,6.029,13.3007,4.60003,2470.156,2020-12-27T07:41:00Z
2020-12-27T05:43:03Z,42.805,6.029,13.3001,4.60010,2470.171,2020-12-27T07:44:03Z
2020-12-27T05:46:07Z,42.805,6.029,13.3020,4.60011,2470.194,2020-12-27T07:47:06Z
2020-12-27T05:49:10Z,42.805,6.029,13.3014,4.60024,2470.124,2020-12-27T07:50:10Z
2020-12-27T05:52:13Z,42.805,6.029,13.3009,4.60014,2470.133,2020-12-27T07:53:13Z
2020-12-27T05:55:16Z,42.805,6.029,13.3023,4.60014,2470.133,2020-12-27T07:56:16Z
2020-12-27T05:58:19Z,42.805,6.029,13.3006,4.60008,2470.147,2020-12-27T07:59:19Z
2020-12-27T06:01:22Z,42.805,6.029,13.3007,4.60008,2470.147,2020-12-27T08:02:22Z
2020-12-27T06:04:25Z,42.805,6.029,13.3001,4.59999,2470.11,2020-12-27T08:05:25Z
2020-12-27T06:07:28Z,42.805,6.029,13.3008,4.60010,2470.194,2020-12-27T08:08:28Z
2020-12-27T06:10:32Z,42.805,6.029,13.3004,4.59997,2470.124,2020-12-27T08:11:31Z
2020-12-27T06:13:35Z,42.805,6.029,13.3008,4.60008,2470.171,2020-12-27T08:14:35Z
2020-12-27T06:16:38Z,42.805,6.029,13.3014,4.60016,2470.147,2020-12-27T08:17:38Z
2020-12-27T06:19:41Z,42.805,6.029,13.3008,4.60008,2470.133,2020-12-27T08:20:41Z
2020-12-27T06:22:44Z,42.805,6.029,13.3007,4.60003,2470.156,2020-12-27T08:23:44Z
2020-12-27T06:25:47Z,42.805,6.029,13.3004,4.60010,2470.133,2020-12-27T08:26:47Z
2020-12-27T06:28:50Z,42.805,6.029,13.2998,4.60010,2470.147,2020-12-27T08:29:50Z
2020-12-27T06:31:53Z,42.805,6.029,13.3022,4.60011,2470.171,2020-12-27T08:32:53Z
2020-12-27T06:34:57Z,42.805,6.029,13.3020,4.60009,2470.171,2020-12-27T08:35:56Z
2020-12-27T06:38:00Z,42.805,6.029,13.3010,4.60013,2470.133,2020-12-27T08:39:00Z
2020-12-27T06:41:03Z,42.805,6.029,13.3004,4.60006,2470.171,2020-12-27T08:42:03Z
2020-12-27T06:44:06Z,42.805,6.029,13.3012,4.60009,2470.156,2020-12-27T08:45:06Z
2020-12-27T06:47:09Z,42.805,6.029,13.3020,4.60011,2470.18,2020-12-27T08:48:09Z
2020-12-27T06:50:12Z,42.805,6.029,13.3011,4.60014,2470.156,2020-12-27T08:51:12Z
2020-12-27T06:53:15Z,42.805,6.029,13.3008,4.60008,2470.156,2020-12-27T08:54:15Z
2020-12-27T06:56:18Z,42.805,6.029,13.3005,4.59999,2470.133,2020-12-27T08:57:18Z
2020-12-27T06:59:22Z,42.805,6.029,13.3006,4.60006,2470.124,2020-12-27T09:00:21Z
2020-12-27T07:02:25Z,42.805,6.029,13.3009,4.60008,2470.156,2020-12-27T09:03:25Z
2020-12-27T07:05:28Z,42.805,6.029,13.3006,4.60011,2470.147,2020-12-27T09:06:28Z
2020-12-27T07:08:31Z,42.805,6.029,13.3024,4.60023,2470.171,2020-12-27T09:09:31Z
2020-12-27T07:11:34Z,42.805,6.029,13.3024,4.60010,2470.156,2020-12-27T09:12:34Z
2020-12-27T07:14:37Z,42.805,6.029,13.3010,4.60006,2470.147,2020-12-27T09:15:37Z
2020-12-27T07:17:40Z,42.805,6.029,13.3003,4.59999,2470.147,2020-12-27T09:18:40Z
2020-12-27T07:20:43Z,42.805,6.029,13.3013,4.60008,2470.147,2020-12-27T09:21:43Z
2020-12-27T07:23:46Z,42.805,6.029,13.3009,4.60005,2470.133,2020-12-27T09:24:46Z
2020-12-27T07:26:50Z,42.805,6.029,13.3004,4.60014,2470.11,2020-12-27T09:27:50Z
2020-12-27T07:29:53Z,42.805,6.029,13.3000,4.60000,2470.133,2020-12-27T09:30:53Z
2020-12-27T07:32:56Z,42.805,6.029,13.3017,4.60011,2470.11,2020-12-27T09:33:56Z
2020-12-27T07:35:59Z,42.805,6.029,13.3014,4.60020,2470.133,2020-12-27T09:36:59Z
2020-12-27T07:39:02Z,42.805,6.029,13.2993,4.60000,2470.124,2020-12-27T09:40:02Z
2020-12-27T07:42:05Z,42.805,6.029,13.3014,4.60018,2470.11,2020-12-27T09:43:05Z
2020-12-27T07:45:08Z,42.805,6.029,13.3009,4.60009,2470.1,2020-12-27T09:46:08Z
2020-12-27T07:48:11Z,42.805,6.029,13.3010,4.60011,2470.133,2020-12-27T09:49:11Z
2020-12-27T07:51:15Z,42.805,6.029,13.3017,4.60001,2470.1,2020-12-27T09:52:14Z
2020-12-27T07:54:18Z,42.805,6.029,13.3009,4.60002,2470.087,2020-12-27T09:55:18Z
2020-12-27T07:57:21Z,42.805,6.029,13.3019,4.60010,2470.11,2020-12-27T09:58:21Z
2020-12-27T08:00:24Z,42.805,6.029,13.2998,4.60010,2470.147,2020-12-27T10:01:24Z
2020-12-27T08:03:27Z,42.805,6.029,13.3021,4.60016,2470.063,2020-12-27T10:04:27Z
2020-12-27T08:06:30Z,42.805,6.029,13.3002,4.60003,2470.133,2020-12-27T10:07:30Z
2020-12-27T08:09:33Z,42.805,6.029,13.3002,4.60003,2470.077,2020-12-27T10:10:33Z
2020-12-27T08:12:36Z,42.805,6.029,13.2997,4.60006,2470.147,2020-12-27T10:13:36Z
2020-12-27T08:15:40Z,42.805,6.029,13.3009,4.60008,2470.11,2020-12-27T10:16:39Z
2020-12-27T08:18:43Z,42.805,6.029,13.3000,4.60003,2470.11,2020-12-27T10:19:43Z
2020-12-27T08:21:46Z,42.805,6.029,13.3020,4.60008,2470.156,2020-12-27T10:22:46Z
2020-12-27T08:24:49Z,42.805,6.029,13.3007,4.60007,2470.11,2020-12-27T10:25:49Z
2020-12-27T08:27:52Z,42.805,6.029,13.3004,4.60011,2470.124,2020-12-27T10:28:52Z
2020-12-27T08:30:55Z,42.805,6.029,13.3004,4.60004,2470.124,2020-12-27T10:31:55Z
2020-12-27T08:33:58Z,42.805,6.029,13.3012,4.60003,2470.11,2020-12-27T10:34:58Z
2020-12-27T08:37:01Z,42.805,6.029,13.3004,4.60011,2470.11,2020-12-27T10:38:01Z
2020-12-27T08:40:05Z,42.805,6.029,13.3025,4.60014,2470.11,2020-12-27T10:41:04Z
2020-12-27T08:43:08Z,42.805,6.029,13.3001,4.60002,2470.063,2020-12-27T10:44:08Z
2020-12-27T08:46:11Z,42.805,6.029,13.3002,4.60010,2470.11,2020-12-27T10:47:11Z
2020-12-27T08:49:14Z,42.805,6.029,13.3005,4.60001,2470.11,2020-12-27T10:50:14Z
2020-12-27T08:52:17Z,42.805,6.029,13.3004,4.59999,2470.073,2020-12-27T10:53:17Z
2020-12-27T08:55:20Z,42.805,6.029,13.3007,4.60009,2470.11,2020-12-27T10:56:20Z
2020-12-27T08:58:23Z,42.805,6.029,13.2999,4.60001,2470.1,2020-12-27T10:59:23Z
2020-12-27T09:01:27Z,42.805,6.029,13.3009,4.59997,2470.087,2020-12-27T11:02:26Z
2020-12-27T09:04:30Z,42.805,6.029,13.3007,4.59999,2470.147,2020-12-27T11:05:30Z
2020-12-27T09:07:33Z,42.805,6.029,13.3004,4.60004,2470.1,2020-12-27T11:08:33Z
2020-12-27T09:10:36Z,42.805,6.029,13.3014,4.60002,2470.077,2020-12-27T11:11:36Z
2020-12-27T09:13:39Z,42.805,6.029,13.3003,4.59999,2470.03,2020-12-27T11:14:39Z
2020-12-27T09:16:42Z,42.805,6.029,13.3016,4.59998,2470.087,2020-12-27T11:17:42Z
2020-12-27T09:19:45Z,42.805,6.029,13.2996,4.60002,2470.087,2020-12-27T11:20:45Z
2020-12-27T09:22:48Z,42.805,6.029,13.3000,4.60003,2470.063,2020-12-27T11:23:48Z
2020-12-27T09:25:52Z,42.805,6.029,13.3010,4.60001,2470.077,2020-12-27T11:26:51Z
2020-12-27T09:28:55Z,42.805,6.029,13.2999,4.60001,2470.087,2020-12-27T11:29:55Z
2020-12-27T09:31:58Z,42.805,6.029,13.3002,4.60001,2470.077,2020-12-27T11:32:58Z
2020-12-27T09:35:01Z,42.805,6.029,13.2997,4.59997,2470.077,2020-12-27T11:36:01Z
2020-12-27T09:38:04Z,42.805,6.029,13.3004,4.59997,2470.063,2020-12-27T11:39:04Z
2020-12-27T09:41:07Z,42.805,6.029,13.2996,4.59994,2470.063,2020-12-27T11:42:07Z
2020-12-27T09:44:10Z,42.805,6.029,13.2998,4.60003,2470.04,2020-12-27T11:45:10Z
2020-12-27T09:47:13Z,42.805,6.029,13.2996,4.60000,2470.1,2020-12-27T11:48:13Z
2020-12-27T09:50:16Z,42.805,6.029,13.3017,4.60001,2470.04,2020-12-27T11:51:16Z
2020-12-27T09:53:20Z,42.805,6.029,13.2999,4.60003,2470.053,2020-12-27T11:54:20Z
2020-12-27T09:56:23Z,42.805,6.029,13.3002,4.60002,2470.04,2020-12-27T11:57:23Z
2020-12-27T09:59:26Z,42.805,6.029,13.2993,4.59998,2470.087,2020-12-27T12:00:26Z
2020-12-27T10:02:29Z,42.805,6.029,13.3004,4.60009,2470.063,2020-12-27T12:03:29Z
2020-12-27T10:05:32Z,42.805,6.029,13.2992,4.59999,2470.077,2020-12-27T12:06:32Z
2020-12-27T10:08:35Z,42.805,6.029,13.2994,4.60022,2470.04,2020-12-27T12:09:35Z
2020-12-27T10:11:38Z,42.805,6.029,13.2999,4.59999,2470.053,2020-12-27T12:12:38Z
2020-12-27T10:14:42Z,42.805,6.029,13.2997,4.60007,2470.053,2020-12-27T12:15:41Z
2020-12-27T10:17:45Z,42.805,6.029,13.2995,4.59997,2470.04,2020-12-27T12:18:45Z
2020-12-27T10:20:48Z,42.805,6.029,13.2998,4.59996,2470.04,2020-12-27T12:21:48Z
2020-12-27T10:23:51Z,42.805,6.029,13.2991,4.59997,2470.04,2020-12-27T12:24:51Z
2020-12-27T10:26:54Z,42.805,6.029,13.2993,4.60000,2470.017,2020-12-27T12:27:54Z
2020-12-27T10:29:57Z,42.805,6.029,13.3002,4.59997,2470.053,2020-12-27T12:30:57Z
2020-12-27T10:33:00Z,42.805,6.029,13.3000,4.60003,2470.017,2020-12-27T12:34:00Z
2020-12-27T10:36:03Z,42.805,6.029,13.2997,4.60011,2470.04,2020-12-27T12:37:03Z
2020-12-27T10:39:07Z,42.805,6.029,13.3012,4.59996,2470.03,2020-12-27T12:40:06Z
2020-12-27T10:42:10Z,42.805,6.029,13.2998,4.60028,2470.04,2020-12-27T12:43:10Z
2020-12-27T10:45:13Z,42.805,6.029,13.3001,4.60003,2470.03,2020-12-27T12:46:13Z
2020-12-27T10:48:16Z,42.805,6.029,13.2993,4.60008,2470.053,2020-12-27T12:49:16Z
2020-12-27T10:51:19Z,42.805,6.029,13.2998,4.59999,2470.017,2020-12-27T12:52:19Z
2020-12-27T10:54:22Z,42.805,6.029,13.3001,4.60010,2470.017,2020-12-27T12:55:22Z
2020-12-27T10:57:25Z,42.805,6.029,13.2999,4.60005,2470.003,2020-12-27T12:58:25Z
2020-12-27T11:00:28Z,42.805,6.029,13.3008,4.60021,2470.04,2020-12-27T13:01:28Z
2020-12-27T11:03:32Z,42.805,6.029,13.2991,4.60006,2470.017,2020-12-27T13:04:31Z
2020-12-27T11:06:35Z,42.805,6.029,13.2999,4.60008,2470.017,2020-12-27T13:07:35Z
2020-12-27T11:09:38Z,42.805,6.029,13.2993,4.60016,2470.04,2020-12-27T13:10:38Z
2020-12-27T11:12:41Z,42.805,6.029,13.3014,4.60017,2470.04,2020-12-27T13:13:41Z
2020-12-27T11:15:44Z,42.805,6.029,13.2998,4.60028,2470.063,2020-12-27T13:16:44Z
2020-12-27T11:18:47Z,42.805,6.029,13.2996,4.60005,2470.017,2020-12-27T13:19:47Z
2020-12-27T11:21:50Z,42.805,6.029,13.2986,4.60008,2470.063,2020-12-27T13:22:50Z
2020-12-27T11:24:53Z,42.805,6.029,13.2998,4.60009,2470.053,2020-12-27T13:25:53Z
2020-12-27T11:27:57Z,42.805,6.029,13.2985,4.60016,2469.993,2020-12-27T13:28:56Z
2020-12-27T11:31:00Z,42.805,6.029,13.2982,4.60010,2470.03,2020-12-27T13:32:00Z
2020-12-27T11:34:03Z,42.805,6.029,13.2986,4.60001,2470.017,2020-12-27T13:35:03Z
2020-12-27T11:37:06Z,42.805,6.029,13.2993,4.60015,2470.063,2020-12-27T13:38:06Z
2020-12-27T11:40:09Z,42.805,6.029,13.2982,4.60009,2470.04,2020-12-27T13:41:09Z
2020-12-27T11:43:12Z,42.805,6.029,13.2982,4.60005,2470.017,2020-12-27T13:44:12Z
2020-12-27T11:46:15Z,42.805,6.029,13.2981,4.60005,2470.017,2020-12-27T13:47:15Z
2020-12-27T11:49:18Z,42.805,6.029,13.2984,4.59995,2470.017,2020-12-27T13:50:18Z
2020-12-27T11:52:22Z,42.805,6.029,13.2982,4.60001,2470.017,2020-12-27T13:53:21Z
2020-12-27T11:55:25Z,42.805,6.029,13.2984,4.59997,2470.03,2020-12-27T13:56:25Z
2020-12-27T11:58:28Z,42.805,6.029,13.2984,4.60001,2470.04,2020-12-27T13:59:28Z
2020-12-27T12:01:31Z,42.805,6.029,13.2985,4.60007,2470.017,2020-12-27T14:02:31Z
2020-12-27T12:04:34Z,42.805,6.029,13.2987,4.60002,2470.04,2020-12-27T14:05:34Z
2020-12-27T12:07:37Z,42.805,6.029,13.2986,4.60004,2470.04,2020-12-27T14:08:37Z
2020-12-27T12:10:40Z,42.805,6.029,13.2991,4.60010,2470.007,2020-12-27T14:11:40Z
2020-12-27T12:13:43Z,42.805,6.029,13.2987,4.60009,2470.017,2020-12-27T14:14:43Z
2020-12-27T12:16:47Z,42.805,6.029,13.2980,4.59990,2470.03,2020-12-27T14:17:46Z
2020-12-27T12:19:50Z,42.805,6.029,13.2990,4.60002,2469.993,2020-12-27T14:20:50Z
2020-12-27T12:22:53Z,42.805,6.029,13.2981,4.59993,2470.007,2020-12-27T14:23:53Z
2020-12-27T12:25:56Z,42.805,6.029,13.2982,4.59988,2469.993,2020-12-27T14:26:56Z
2020-12-27T12:28:59Z,42.805,6.029,13.2986,4.59996,2470.03,2020-12-27T14:29:59Z
2020-12-27T12:32:02Z,42.805,6.029,13.2984,4.59998,2470.017,2020-12-27T14:33:02Z
2020-12-27T12:35:05Z,42.805,6.029,13.2984,4.59994,2470.017,2020-12-27T14:36:05Z
2020-12-27T12:38:09Z,42.805,6.029,13.2978,4.59992,2470.04,2020-12-27T14:39:08Z
2020-12-27T12:41:12Z,42.805,6.029,13.2976,4.59993,2470.007,2020-12-27T14:42:12Z
2020-12-27T12:44:15Z,42.805,6.029,13.2985,4.59994,2470.017,2020-12-27T14:45:15Z
2020-12-27T12:47:18Z,42.805,6.029,13.2982,4.60003,2470.03,2020-12-27T14:48:18Z
2020-12-27T12:50:21Z,42.805,6.029,13.2981,4.59993,2470.03,2020-12-27T14:51:21Z
2020-12-27T12:53:24Z,42.805,6.029,13.2979,4.59994,2469.993,2020-12-27T14:54:24Z
2020-12-27T12:56:27Z,42.805,6.029,13.2981,4.59988,2470.017,2020-12-27T14:57:27Z
2020-12-27T12:59:30Z,42.805,6.029,13.2984,4.59995,2469.993,2020-12-27T15:00:30Z
2020-12-27T13:02:33Z,42.805,6.029,13.2981,4.60000,2470.03,2020-12-27T15:03:33Z
2020-12-27T13:05:37Z,42.805,6.029,13.2982,4.59987,2470.03,2020-12-27T15:06:37Z
2020-12-27T13:08:40Z,42.805,6.029,13.2980,4.59988,2470.017,2020-12-27T15:09:40Z
2020-12-27T13:11:43Z,42.805,6.029,13.2983,4.59993,2469.993,2020-12-27T15:12:43Z
2020-12-27T13:14:46Z,42.805,6.029,13.2981,4.59993,2469.984,2020-12-27T15:15:46Z
2020-12-27T13:17:49Z,42.805,6.029,13.2982,4.59988,2470.03,2020-12-27T15:18:49Z
2020-12-27T13:20:52Z,42.805,6.029,13.2983,4.59990,2469.993,2020-12-27T15:21:52Z
2020-12-27T13:23:55Z,42.805,6.029,13.2980,4.59989,2469.984,2020-12-27T15:24:55Z
2020-12-27T13:26:59Z,42.805,6.029,13.2979,4.59987,2470.007,2020-12-27T15:27:58Z
2020-12-27T13:30:02Z,42.805,6.029,13.2982,4.59988,2469.993,2020-12-27T15:31:02Z
2020-12-27T13:33:05Z,42.805,6.029,13.2978,4.59985,2470.03,2020-12-27T15:34:05Z
2020-12-27T13:36:08Z,42.805,6.029,13.2978,4.59986,2470.017,2020-12-27T15:37:08Z
2020-12-27T13:39:11Z,42.805,6.029,13.2979,4.59988,2470.007,2020-12-27T15:40:11Z
2020-12-27T13:42:14Z,42.805,6.029,13.2982,4.59986,2469.984,2020-12-27T15:43:14Z
2020-12-27T13:45:17Z,42.805,6.029,13.2983,4.59986,2469.993,2020-12-27T15:46:17Z
2020-12-27T13:48:20Z,42.805,6.029,13.2976,4.59986,2469.993,2020-12-27T15:49:20Z
2020-12-27T13:51:24Z,42.805,6.029,13.2983,4.59988,2469.993,2020-12-27T15:52:23Z
2020-12-27T13:54:27Z,42.805,6.029,13.2981,4.59992,2470.007,2020-12-27T15:55:27Z
2020-12-27T13:57:30Z,42.805,6.029,13.2982,4.59985,2470.03,2020-12-27T15:58:30Z
2020-12-27T14:00:33Z,42.805,6.029,13.2983,4.59988,2469.993,2020-12-27T16:01:33Z
2020-12-27T14:03:36Z,42.805,6.029,13.2982,4.59988,2469.993,2020-12-27T16:04:36Z
2020-12-27T14:06:39Z,42.805,6.029,13.2981,4.59986,2469.97,2020-12-27T16:07:39Z
2020-12-27T14:09:42Z,42.805,6.029,13.2979,4.59985,2470.03,2020-12-27T16:10:42Z
2020-12-27T14:12:45Z,42.805,6.029,13.2982,4.59986,2470.017,2020-12-27T16:13:45Z
2020-12-27T14:15:49Z,42.805,6.029,13.2984,4.59984,2470.053,2020-12-27T16:16:48Z
2020-12-27T14:18:52Z,42.805,6.029,13.2981,4.59987,2470.007,2020-12-27T16:19:52Z
2020-12-27T14:21:55Z,42.805,6.029,13.2982,4.59986,2470.03,2020-12-27T16:22:55Z
2020-12-27T14:24:58Z,42.805,6.029,13.2977,4.59986,2470.007,2020-12-27T16:25:58Z
2020-12-27T14:28:01Z,42.805,6.029,13.2978,4.59988,2470.007,2020-12-27T16:29:01Z
2020-12-27T14:31:04Z,42.805,6.029,13.2979,4.59986,2470.007,2020-12-27T16:32:04Z
2020-12-27T14:34:07Z,42.805,6.029,13.2982,4.59986,2470.053,2020-12-27T16:35:07Z
2020-12-27T14:37:10Z,42.805,6.029,13.2982,4.59986,2470.03,2020-12-27T16:38:10Z
2020-12-27T14:40:14Z,42.805,6.029,13.2978,4.59986,2470.04,2020-12-27T16:41:13Z
2020-12-27T14:43:17Z,42.805,6.029,13.2979,4.59985,2470.077,2020-12-27T16:44:17Z
2020-12-27T14:46:20Z,42.805,6.029,13.2977,4.59986,2470.063,2020-12-27T16:47:20Z
2020-12-27T14:49:23Z,42.805,6.029,13.2980,4.59988,2470.03,2020-12-27T16:50:23Z
2020-12-27T14:52:26Z,42.805,6.029,13.2979,4.59988,2470.03,2020-12-27T16:53:26Z
2020-12-27T14:55:29Z,42.805,6.029,13.2981,4.59988,2470.04,2020-12-27T16:56:29Z
2020-12-27T14:58:32Z,42.805,6.029,13.2981,4.59990,2470.03,2020-12-27T16:59:32Z
2020-12-27T15:01:35Z,42.805,6.029,13.2984,4.59991,2470.017,2020-12-27T17:02:35Z